CYBN

CFB Borden  Heliport

Borden, Ontario, Canada
Issued Wind Visibility Ceiling Temperature Dew Point Humidity Barometer
Nov-22
06:54 UTC
290°
6 KTS
9 miles Overcast
2,200' AGL
C
34° F
-3° C
27° F
75% 29.94" Hg
1014 hPa
MVFR
Nov-22
06:49 UTC
290°
6 KTS
9 miles Overcast
2,400' AGL
C
34° F
-3° C
27° F
75% 29.93" Hg
1014 hPa
MVFR
Nov-22
06:38 UTC
300°
8 KTS
9 miles Overcast
2,500' AGL
C
34° F
-3° C
27° F
75% 29.93" Hg
1014 hPa
MVFR
Nov-22
06:00 UTC
300°
6 KTS
9 miles Overcast
2,300' AGL
C
34° F
-3° C
27° F
75% 29.92" Hg
1014 hPa
MVFR
Nov-22
05:53 UTC
300°
6 KTS
9 miles Overcast
2,300' AGL
C
34° F
-3° C
27° F
75% 29.92" Hg
1013 hPa
MVFR
Nov-22
05:00 UTC
300°
6 KTS
9 miles Overcast
2,900' AGL
C
34° F
-3° C
27° F
75% 29.9" Hg
1013.1 hPa
MVFR
Nov-22
04:09 UTC
310°
6 KTS
9 miles Overcast
2,600' AGL
C
36° F
-1° C
30° F
81% 29.87" Hg
1012 hPa
MVFR
Nov-22
03:21 UTC
300°
6 KTS
9 miles Overcast
2,400' AGL
C
36° F
C
32° F
87% 29.86" Hg
1011 hPa
MVFR
Nov-22
03:00 UTC
290°
4 KTS
9 miles Overcast
2,600' AGL
C
36° F
C
32° F
87% 29.86" Hg
1011.8 hPa
MVFR
Nov-22
02:00 UTC
280°
4 KTS
9 miles Overcast
2,800' AGL
C
37° F
C
36° F
93% 29.84" Hg
1011.2 hPa
MVFR
Nov-22
01:44 UTC
250°
3 KTS
9 miles Overcast
2,800' AGL
C
37° F
C
36° F
93% 29.83" Hg
1010 hPa
MVFR
Nov-22
01:23 UTC
270°
4 KTS
9 miles Overcast
2,800' AGL
C
37° F
C
36° F
93% 29.83" Hg
1010 hPa
MVFR
Nov-22
01:12 UTC
290°
5 KTS
9 miles Overcast
2,500' AGL
C
37° F
C
36° F
93% 29.83" Hg
1010 hPa
MVFR
Nov-22
01:05 UTC
300°
5 KTS
9 miles Overcast
2,300' AGL
C
37° F
C
36° F
93% 29.83" Hg
1010 hPa
MVFR
Nov-22
00:40 UTC
300°
8 KTS
9 miles Overcast
900' AGL
C
37° F
C
36° F
93% 29.82" Hg
1010 hPa
IFR
Nov-22
00:20 UTC
    Overcast
1,400' AGL
      29.81" Hg
1009 hPa
Nov-22
00:00 UTC
260°
8 KTS
9 miles Overcast
1,800' AGL
C
39° F
C
37° F
93% 29.8" Hg
1009.7 hPa
MVFR
Nov-21
23:00 UTC
230°
9 KTS
9 miles Overcast
3,200' AGL
C
41° F
C
37° F
87% 29.77" Hg
1008.8 hPa
VFR
Nov-21
22:59 UTC
230°
8 KTS
9 miles Overcast
3,200' AGL
C
41° F
C
37° F
87% 29.77" Hg
1008 hPa
VFR
Nov-21
22:53 UTC
230°
10 KTS
9 miles Overcast
2,100' AGL
C
41° F
C
37° F
87% 29.76" Hg
1008 hPa
MVFR
Nov-21
22:16 UTC
230°
6 KTS
9 miles Overcast
2,300' AGL
C
43° F
C
37° F
81% 29.74" Hg
1007 hPa
MVFR
Nov-21
22:14 UTC
240°
7 KTS
9 miles Overcast
2,300' AGL
C
43° F
C
37° F
81% 29.74" Hg
1007 hPa
MVFR
Nov-21
21:28 UTC
260°
7 KTS
Gust 16 KTS
9 miles Overcast
3,000' AGL
C
43° F
C
36° F
76% 29.73" Hg
1007 hPa
MVFR
Nov-21
21:00 UTC
250°
12 KTS
Gust 18 KTS
9 miles Overcast
3,500' AGL
C
45° F
C
34° F
66% 29.72" Hg
1007 hPa
VFR
Nov-21
20:00 UTC
230°
9 KTS
Gust 15 KTS
9 miles Broken
3,900' AGL
C
46° F
C
34° F
62% 29.69" Hg
1006.1 hPa
VFR
Nov-21
19:00 UTC
230°
18 KTS
Gust 24 KTS
9 miles   C
46° F
C
34° F
62% 29.66" Hg
1004.9 hPa
VFR
Nov-21
18:00 UTC
230°
17 KTS
Gust 22 KTS
9 miles   C
46° F
C
32° F
57% 29.64" Hg
1004.3 hPa
VFR
Nov-21
17:00 UTC
230°
13 KTS
Gust 20 KTS
9 miles   C
46° F
C
32° F
57% 29.64" Hg
1004.3 hPa
VFR
Nov-21
16:00 UTC
220°
13 KTS
Gust 19 KTS
9 miles   C
45° F
-1° C
30° F
57% 29.62" Hg
1003.7 hPa
VFR
Nov-21
15:00 UTC
210°
12 KTS
Gust 21 KTS
9 miles   C
45° F
-2° C
28° F
53% 29.61" Hg
1003.5 hPa
VFR
Nov-21
14:00 UTC
210°
12 KTS
Gust 18 KTS
9 miles   C
41° F
-2° C
28° F
61% 29.61" Hg
1003.5 hPa
VFR
Nov-21
13:00 UTC
190°
12 KTS
Gust 18 KTS
9 miles   C
41° F
-2° C
28° F
61% 29.61" Hg
1003.6 hPa
VFR
Nov-21
12:00 UTC
200°
6 KTS
9 miles   C
39° F
-2° C
28° F
65% 29.62" Hg
1003.8 hPa
VFR
Nov-21
11:00 UTC
200°
13 KTS
9 miles   C
39° F
-2° C
28° F
65% 29.62" Hg
1003.8 hPa
VFR
Nov-21
10:00 UTC
200°
13 KTS
9 miles   C
39° F
-2° C
28° F
65% 29.65" Hg
1005 hPa
VFR
Nov-21
09:00 UTC
200°
14 KTS
Gust 20 KTS
9 miles   C
39° F
-2° C
28° F
65% 29.68" Hg
1005.8 hPa
VFR
Nov-21
08:00 UTC
220°
17 KTS
Gust 22 KTS
9 miles   C
39° F
-2° C
28° F
65% 29.7" Hg
1006.5 hPa
VFR